DELTA 1 DEB

Satellite information

Favourite Embed

Satellite Type and Status

DEBRISIN ORBIT

Key statistics

Satellite DELTA 1 DEB at a glance.

Uptime

18402

Days in orbit

Revolutions

≈ 12.9

Per day

Orbit

SSO

Sun Synchronous Orbit

Inclination

99.7

Latest

Satellite identification and parameters

Extended collection of information and parameters for DELTA 1 DEB.

Object identification

Identified? True

Debris? True

Object name: DELTA 1 DEB

International designator: 1975-052MP

Object number (NORAD): 42654

Object ID (CCSDS): 42654

Country: UNITED STATES OF AMERICA (US)

Current information (Y/N): Y

RCS size: SMALL

Orbital parameters

Period: 111.468 minutes

Inclination: 99.7103 deg

SMA: 7672.328 km

Apoapsis: 1506.062 km

Periapsis: 1082.325 km

RAAN: 214.731 deg

Eccentricy: 0.02761463

Argument of periapsis: 67.8415 deg

Mean anomaly: 312.1749 deg

Mean motion: 12.91849772 rev/day

Mean motion (dot): 0.00000125 rev/day2

B* drag term: 0.00050556018 1/REarth

Two-line elements (TLE)

Creation date: Sept. 13, 2025, 10:35 a.m.

Reference frame: TEME

Reference center: EARTH

Epoch: Sept. 13, 2025, 4:07 a.m. UTC

TLE line 0: 0 DELTA 1 DEB

TLE line 1: 1 42654U 75052MP 25256.17204330 .00000125 00000-0 50556-3 0 9992

TLE line 2: 2 42654 99.7103 214.7310 0276146 67.8415 312.1749 12.91849772999326

Live tracking on map

Real-time ground track for satellite DELTA 1 DEB.

In-orbit conjunctions

A list of the most updated potential collisions computed for object DELTA 1 DEB.

Target Orbit TCA Probability of collision Miss distance Type
COSMOS 447 LEO 2025-08-10 02:07:34 0.0005987378 90.0 (m) PAYLOAD

Associated space launch

Experimental meteorological satellite

DELTA 1 DEB was lifted into orbit during the mission ‘Delta 2910 | Nimbus 6’, on board a Delta 2910 space rocket.

The launch took place on June 12, 1975, 8:12 a.m. from Space Launch Complex 2W.

For more information about the launch, click the button.

Launch to space Delta 2910 | Nimbus 6
Delta 2910 | Nimbus 6

Agency: N/A

Status: Launch Successful

Launch date: June 12, 1975, 8:12 a.m. UTC

Rocket: Delta 2910

Launch pad: Space Launch Complex 2W

Location: Vandenberg SFB, CA, USA

...

Latest news about this satellite

There are no fresh news available about this satellite. Check back as we update our databases every day.


Newsletter sign-up

Weekly statistics, charts and insights to help you stay on top of the space industry.